BVX012A EGGW-EGPH

Flight info

Callsign BVX012A
Flight time 0h 49m
Altitude 30000
Route OLNEY T420 TNT UN57 POL UN601 RIBEL DCT INPIP
Aircraft A359/H-SDE2E3GHIJ3J4J5LM1ORWXY/LB1D1

Departure

Time 2026-04-23 14:44
Airport London Luton Airport (EGGW)

Arrival

Time 2026-04-23 15:33
Airport Edinburgh Airport (EGPH)
Time Latitude Longitude Altitude Speed Heading
2026-04-23 14:35 51.87805 -0.37933 538 ft 0 kts 115°
2026-04-23 14:38 51.87801 -0.37918 529 ft 3 kts 116°
2026-04-23 14:38 51.87789 -0.37878 529 ft 5 kts 116°
2026-04-23 14:38 51.87771 -0.37816 529 ft 7 kts 115°
2026-04-23 14:39 51.87744 -0.37724 529 ft 10 kts 115°
2026-04-23 14:39 51.87704 -0.37583 525 ft 15 kts 115°
2026-04-23 14:39 51.87637 -0.37471 529 ft 14 kts 159°
2026-04-23 14:39 51.87537 -0.37481 527 ft 16 kts 207°
2026-04-23 14:40 51.87490 -0.37608 529 ft 12 kts 256°
2026-04-23 14:40 51.87468 -0.37744 529 ft 14 kts 255°
2026-04-23 14:40 51.87446 -0.37875 529 ft 7 kts 255°
2026-04-23 14:40 51.87432 -0.37957 530 ft 8 kts 255°
2026-04-23 14:41 51.87401 -0.38040 530 ft 10 kts 223°
2026-04-23 14:41 51.87328 -0.38099 528 ft 13 kts 204°
2026-04-23 14:41 51.87246 -0.38142 530 ft 12 kts 217°
2026-04-23 14:41 51.87209 -0.38266 527 ft 0 kts 241°
2026-04-23 14:42 51.87206 -0.38272 527 ft 1 kts 233°
2026-04-23 14:42 51.87193 -0.38297 526 ft 5 kts 240°
2026-04-23 14:42 51.87202 -0.38322 526 ft 2 kts 331°
2026-04-23 14:42 51.87211 -0.38314 526 ft 0 kts 32°
2026-04-23 14:43 51.87212 -0.38299 527 ft 0 kts 75°
2026-04-23 14:43 51.87281 -0.37899 531 ft 82 kts 74°
2026-04-23 14:44 51.87514 -0.36548 588 ft 159 kts 74°
2026-04-23 14:44 51.87808 -0.34835 1676 ft 153 kts 74°
2026-04-23 14:44 51.88071 -0.33262 2723 ft 136 kts 76°
2026-04-23 14:44 51.88305 -0.31761 3243 ft 135 kts 78°
2026-04-23 14:45 51.88878 -0.30458 3452 ft 161 kts 35°
2026-04-23 14:45 51.90069 -0.30280 3624 ft 193 kts 345°
2026-04-23 14:45 51.91142 -0.31764 3811 ft 221 kts 299°
2026-04-23 14:45 51.91425 -0.34293 4038 ft 240 kts 266°
2026-04-23 14:46 51.91628 -0.37045 4242 ft 260 kts 290°
2026-04-23 14:46 51.92437 -0.39741 4665 ft 272 kts 307°
2026-04-23 14:46 51.93668 -0.42097 5241 ft 277 kts 315°
2026-04-23 14:46 51.95013 -0.44368 5798 ft 282 kts 316°
2026-04-23 14:47 51.96379 -0.46661 6482 ft 282 kts 316°
2026-04-23 14:47 51.97747 -0.48966 7131 ft 285 kts 316°
2026-04-23 14:47 51.99131 -0.51302 7683 ft 290 kts 316°
2026-04-23 14:47 52.00555 -0.53658 8318 ft 292 kts 318°
2026-04-23 14:48 52.01998 -0.55974 9047 ft 291 kts 318°
2026-04-23 14:48 52.03442 -0.58286 9709 ft 292 kts 317°
2026-04-23 14:48 52.04891 -0.60617 10329 ft 295 kts 317°
2026-04-23 14:48 52.06366 -0.62998 10755 ft 304 kts 316°
2026-04-23 14:49 52.07895 -0.65472 11022 ft 318 kts 317°
2026-04-23 14:49 52.09495 -0.68063 11281 ft 331 kts 317°
2026-04-23 14:49 52.11161 -0.70766 11537 ft 344 kts 317°
2026-04-23 14:49 52.12950 -0.73442 11840 ft 353 kts 323°
2026-04-23 14:50 52.14915 -0.75753 12360 ft 354 kts 328°
2026-04-23 14:50 52.17008 -0.77904 12827 ft 357 kts 332°
2026-04-23 14:50 52.19159 -0.79970 13357 ft 360 kts 332°
2026-04-23 14:50 52.21332 -0.82022 13887 ft 362 kts 332°
2026-04-23 14:51 52.23513 -0.84096 14390 ft 365 kts 332°
2026-04-23 14:51 52.25711 -0.86215 14828 ft 368 kts 332°
2026-04-23 14:51 52.27917 -0.88369 15281 ft 371 kts 332°
2026-04-23 14:51 52.30127 -0.90552 15754 ft 373 kts 331°
2026-04-23 14:52 52.32352 -0.92766 16233 ft 375 kts 331°
2026-04-23 14:52 52.34596 -0.95008 16715 ft 378 kts 330°
2026-04-23 14:52 52.36841 -0.97256 17214 ft 380 kts 331°
2026-04-23 14:52 52.39110 -0.99526 17633 ft 384 kts 330°
2026-04-23 14:53 52.41321 -1.01737 18022 ft 388 kts 331°
2026-04-23 14:53 52.43635 -1.04055 18401 ft 391 kts 330°
2026-04-23 14:53 52.45952 -1.06379 18861 ft 392 kts 330°
2026-04-23 14:53 52.48284 -1.08723 19294 ft 393 kts 330°
2026-04-23 14:54 52.50619 -1.11063 19692 ft 395 kts 330°
2026-04-23 14:54 52.52972 -1.13427 20083 ft 396 kts 330°
2026-04-23 14:54 52.55329 -1.15802 20461 ft 399 kts 331°
2026-04-23 14:54 52.57699 -1.18189 20881 ft 400 kts 330°
2026-04-23 14:55 52.60073 -1.20582 21309 ft 401 kts 330°
2026-04-23 14:55 52.62449 -1.22986 21728 ft 402 kts 330°
2026-04-23 14:55 52.64830 -1.25398 22118 ft 403 kts 330°
2026-04-23 14:55 52.66418 -1.27009 22383 ft 404 kts 330°
2026-04-23 14:56 52.68819 -1.29448 22796 ft 406 kts 330°
2026-04-23 14:56 52.71227 -1.31891 23188 ft 407 kts 330°
2026-04-23 14:56 52.74437 -1.35152 23841 ft 410 kts 330°
2026-04-23 14:56 52.76077 -1.36826 24062 ft 411 kts 330°
2026-04-23 14:57 52.78511 -1.39313 24375 ft 412 kts 330°
2026-04-23 14:57 52.80957 -1.41817 24664 ft 414 kts 330°
2026-04-23 14:57 52.83411 -1.44330 24942 ft 417 kts 329°
2026-04-23 14:57 52.85887 -1.46868 25199 ft 420 kts 330°
2026-04-23 14:58 52.88374 -1.49419 25477 ft 422 kts 330°
2026-04-23 14:58 52.90877 -1.51991 25748 ft 425 kts 330°
2026-04-23 14:58 52.93367 -1.54553 26382 ft 416 kts 330°
2026-04-23 14:58 52.95814 -1.57077 26881 ft 415 kts 330°
2026-04-23 14:59 52.98274 -1.59615 27172 ft 418 kts 330°
2026-04-23 14:59 53.00750 -1.62171 27487 ft 421 kts 329°
2026-04-23 14:59 53.03219 -1.64719 27747 ft 424 kts 330°
2026-04-23 14:59 53.05830 -1.67013 28092 ft 425 kts 338°
2026-04-23 15:00 53.08556 -1.68897 28458 ft 426 kts 339°
2026-04-23 15:00 53.11323 -1.70694 28827 ft 427 kts 340°
2026-04-23 15:00 53.14111 -1.72442 29190 ft 429 kts 341°
2026-04-23 15:00 53.16921 -1.74176 29561 ft 431 kts 341°
2026-04-23 15:01 53.19740 -1.75909 29940 ft 434 kts 341°
2026-04-23 15:01 53.22578 -1.77657 30300 ft 436 kts 341°
2026-04-23 15:01 53.25429 -1.79421 30623 ft 439 kts 340°
2026-04-23 15:01 53.28306 -1.81209 30840 ft 443 kts 340°
2026-04-23 15:02 53.31204 -1.83017 31106 ft 446 kts 340°
2026-04-23 15:02 53.34112 -1.84836 31376 ft 448 kts 340°
2026-04-23 15:02 53.37046 -1.86676 31678 ft 451 kts 340°
2026-04-23 15:02 53.39985 -1.88522 31959 ft 453 kts 340°
2026-04-23 15:03 53.42944 -1.90382 32221 ft 455 kts 340°
2026-04-23 15:03 53.45923 -1.92258 32409 ft 459 kts 340°
2026-04-23 15:03 53.48868 -1.94116 32468 ft 444 kts 340°
2026-04-23 15:03 53.51708 -1.95912 32465 ft 429 kts 340°
2026-04-23 15:04 53.57209 -1.99396 32468 ft 420 kts 340°
2026-04-23 15:04 53.62641 -2.02841 32468 ft 420 kts 340°
2026-04-23 15:05 53.68153 -2.06346 32470 ft 421 kts 340°
2026-04-23 15:05 53.73619 -2.09833 32452 ft 417 kts 340°
2026-04-23 15:06 53.79001 -2.13364 32455 ft 413 kts 339°
2026-04-23 15:06 53.84294 -2.17020 32456 ft 413 kts 338°
2026-04-23 15:07 53.89618 -2.20698 32457 ft 413 kts 339°
2026-04-23 15:07 53.94946 -2.24367 32456 ft 413 kts 339°
2026-04-23 15:08 54.00282 -2.28041 32460 ft 413 kts 339°
2026-04-23 15:09 54.08288 -2.33559 32452 ft 414 kts 339°
2026-04-23 15:09 54.13595 -2.37237 32452 ft 414 kts 338°
2026-04-23 15:10 54.18058 -2.40336 32453 ft 414 kts 338°
2026-04-23 15:10 54.24292 -2.44675 32451 ft 414 kts 338°
2026-04-23 15:11 54.29598 -2.48381 32452 ft 414 kts 338°
2026-04-23 15:11 54.34937 -2.52119 32449 ft 415 kts 338°
2026-04-23 15:12 54.40274 -2.55866 32454 ft 414 kts 338°
2026-04-23 15:12 54.45613 -2.59625 32444 ft 414 kts 338°
2026-04-23 15:13 54.50953 -2.63396 32443 ft 415 kts 338°
2026-04-23 15:13 54.56299 -2.67182 32445 ft 415 kts 338°
2026-04-23 15:14 54.61640 -2.70975 32445 ft 416 kts 338°
2026-04-23 15:14 54.66969 -2.74770 32452 ft 417 kts 338°
2026-04-23 15:15 54.72337 -2.78603 32454 ft 417 kts 338°
2026-04-23 15:15 54.77669 -2.82422 31646 ft 416 kts 338°
2026-04-23 15:15 54.80381 -2.84369 30641 ft 427 kts 338°
2026-04-23 15:16 54.83156 -2.86362 29612 ft 435 kts 338°
2026-04-23 15:16 54.85977 -2.88393 28557 ft 443 kts 338°
2026-04-23 15:16 54.88847 -2.90459 27496 ft 450 kts 338°
2026-04-23 15:16 54.91768 -2.92565 26422 ft 458 kts 338°
2026-04-23 15:17 54.94736 -2.94714 25485 ft 464 kts 338°
2026-04-23 15:17 54.97714 -2.96873 24735 ft 463 kts 337°
2026-04-23 15:17 55.00696 -2.99039 23904 ft 465 kts 337°
2026-04-23 15:17 55.03680 -3.01208 23029 ft 464 kts 337°
2026-04-23 15:18 55.06652 -3.03373 22252 ft 461 kts 337°
2026-04-23 15:18 55.09598 -3.05521 21598 ft 456 kts 337°
2026-04-23 15:18 55.12498 -3.07685 20970 ft 451 kts 336°
2026-04-23 15:18 55.15340 -3.09927 20339 ft 446 kts 335°
2026-04-23 15:19 55.18150 -3.12242 19533 ft 446 kts 334°
2026-04-23 15:19 55.20926 -3.14636 18801 ft 445 kts 333°
2026-04-23 15:19 55.23664 -3.17029 17791 ft 433 kts 333°
2026-04-23 15:19 55.26324 -3.19350 16647 ft 423 kts 333°
2026-04-23 15:20 55.28056 -3.20854 16106 ft 412 kts 333°
2026-04-23 15:20 55.31366 -3.23706 15467 ft 381 kts 333°
2026-04-23 15:20 55.33684 -3.25692 14992 ft 361 kts 333°
2026-04-23 15:20 55.35900 -3.27587 14315 ft 350 kts 333°
2026-04-23 15:21 55.38045 -3.29426 13484 ft 344 kts 333°
2026-04-23 15:21 55.40210 -3.31284 12579 ft 340 kts 333°
2026-04-23 15:21 55.42276 -3.33058 11934 ft 329 kts 332°
2026-04-23 15:21 55.44318 -3.34812 11176 ft 324 kts 332°
2026-04-23 15:22 55.46318 -3.36533 10625 ft 314 kts 332°
2026-04-23 15:22 55.48238 -3.38183 10252 ft 299 kts 332°
2026-04-23 15:22 55.50086 -3.39775 9712 ft 291 kts 332°
2026-04-23 15:22 55.51857 -3.41302 9453 ft 279 kts 332°
2026-04-23 15:23 55.53609 -3.42815 9180 ft 280 kts 332°
2026-04-23 15:23 55.55357 -3.44328 8865 ft 279 kts 332°
2026-04-23 15:23 55.57089 -3.45830 8519 ft 277 kts 332°
2026-04-23 15:23 55.58828 -3.47343 8222 ft 282 kts 332°
2026-04-23 15:24 55.60568 -3.48857 7957 ft 272 kts 332°
2026-04-23 15:24 55.62229 -3.50294 7617 ft 261 kts 332°
2026-04-23 15:24 55.63856 -3.51696 7369 ft 260 kts 332°
2026-04-23 15:24 55.65511 -3.53135 7114 ft 268 kts 332°
2026-04-23 15:25 55.67184 -3.54597 6814 ft 268 kts 332°
2026-04-23 15:25 55.68829 -3.56034 6490 ft 267 kts 332°
2026-04-23 15:25 55.70477 -3.57537 6190 ft 263 kts 326°
2026-04-23 15:25 55.71879 -3.59490 5946 ft 253 kts 315°
2026-04-23 15:26 55.73148 -3.61629 5655 ft 249 kts 313°
2026-04-23 15:26 55.74366 -3.63759 5509 ft 242 kts 313°
2026-04-23 15:26 55.75556 -3.65868 5421 ft 242 kts 313°
2026-04-23 15:26 55.76839 -3.67797 5331 ft 243 kts 325°
2026-04-23 15:27 55.78289 -3.69351 5202 ft 243 kts 328°
2026-04-23 15:27 55.79763 -3.70818 5064 ft 241 kts 329°
2026-04-23 15:27 55.81223 -3.72216 4840 ft 236 kts 333°
2026-04-23 15:27 55.82814 -3.72718 4603 ft 233 kts
2026-04-23 15:28 55.84324 -3.71842 4368 ft 227 kts 27°
2026-04-23 15:28 55.85615 -3.70299 4127 ft 221 kts 50°
2026-04-23 15:28 55.86296 -3.67951 3859 ft 209 kts 79°
2026-04-23 15:28 55.86611 -3.65472 3566 ft 203 kts 79°
2026-04-23 15:29 55.86934 -3.63056 3251 ft 197 kts 79°
2026-04-23 15:29 55.87251 -3.60722 3005 ft 191 kts 78°
2026-04-23 15:29 55.87775 -3.58554 2759 ft 191 kts 63°
2026-04-23 15:29 55.88460 -3.56543 2479 ft 186 kts 61°
2026-04-23 15:30 55.89109 -3.54600 2229 ft 179 kts 61°
2026-04-23 15:30 55.89739 -3.52746 1988 ft 171 kts 60°
2026-04-23 15:30 55.90335 -3.50988 1750 ft 162 kts 61°
2026-04-23 15:30 55.90911 -3.49287 1533 ft 159 kts 59°
2026-04-23 15:31 55.91483 -3.47603 1327 ft 157 kts 60°
2026-04-23 15:31 55.92033 -3.45982 1108 ft 148 kts 59°
2026-04-23 15:31 55.92554 -3.44447 903 ft 141 kts 60°
2026-04-23 15:31 55.93045 -3.42999 701 ft 131 kts 59°
2026-04-23 15:32 55.93513 -3.41621 540 ft 129 kts 59°
2026-04-23 15:32 55.93979 -3.40245 371 ft 130 kts 59°
2026-04-23 15:32 55.94445 -3.38880 214 ft 128 kts 59°
2026-04-23 15:32 55.94897 -3.37552 115 ft 111 kts 59°
2026-04-23 15:33 55.95205 -3.36646 117 ft 61 kts 59°
2026-04-23 15:33 55.95388 -3.36103 113 ft 35 kts 59°
2026-04-23 15:33 55.95500 -3.35775 114 ft 25 kts 58°
2026-04-23 15:33 55.95564 -3.35585 114 ft 10 kts 65°
2026-04-23 15:34 55.95540 -3.35486 117 ft 9 kts 143°
2026-04-23 15:34 55.95492 -3.35432 118 ft 8 kts 148°
2026-04-23 15:34 55.95438 -3.35427 120 ft 8 kts 213°
2026-04-23 15:34 55.95393 -3.35517 117 ft 9 kts 235°
2026-04-23 15:35 55.95358 -3.35621 117 ft 11 kts 238°
2026-04-23 15:35 55.95319 -3.35737 117 ft 9 kts 239°
2026-04-23 15:35 55.95282 -3.35846 117 ft 7 kts 238°
2026-04-23 15:35 55.95251 -3.35935 117 ft 10 kts 238°
2026-04-23 15:36 55.95210 -3.36058 117 ft 13 kts 239°
2026-04-23 15:36 55.95158 -3.36211 118 ft 15 kts 239°
2026-04-23 15:36 55.95116 -3.36335 118 ft 10 kts 239°
2026-04-23 15:36 55.95084 -3.36431 120 ft 8 kts 239°
2026-04-23 15:37 55.95058 -3.36509 117 ft 7 kts 239°
2026-04-23 15:37 55.95032 -3.36586 118 ft 8 kts 238°
2026-04-23 15:37 55.95012 -3.36643 118 ft 9 kts 239°
2026-04-23 15:37 55.94971 -3.36765 117 ft 8 kts 239°
2026-04-23 15:38 55.94940 -3.36824 117 ft 5 kts 204°
2026-04-23 15:38 55.94913 -3.36820 117 ft 3 kts 162°
2026-04-23 15:38 55.94891 -3.36799 117 ft 5 kts 151°
2026-04-23 15:38 55.94856 -3.36775 122 ft 6 kts 153°
2026-04-23 15:39 55.94829 -3.36727 118 ft 5 kts 127°
2026-04-23 15:39 55.94814 -3.36680 118 ft 4 kts 119°
2026-04-23 15:39 55.94803 -3.36642 117 ft 2 kts 117°
2026-04-23 15:39 55.94803 -3.36641 117 ft 0 kts 117°
2026-04-23 15:40 55.94802 -3.36637 118 ft 1 kts 117°
2026-04-23 15:40 55.94801 -3.36633 118 ft 0 kts 117°